Time,TemperatureF,DewpointF,PressureIn,WindDirection,WindDirectionDegrees,WindSpeedMPH,WindSpeedGustMPH,Humidity,HourlyPrecipIn,Conditions,Clouds,dailyrainin,SoftwareType,DateUTC
2013-06-13 00:01:00,56.0,54.0,29.77,West,263,0.0,0.0,92,0.00,,,0.00,,2013-06-13 04:01:00,
2013-06-13 00:12:00,56.0,54.0,29.77,West,263,0.0,0.0,92,0.00,,,0.00,,2013-06-13 04:12:00,
2013-06-13 00:22:00,55.0,53.0,29.77,West,263,0.0,0.0,93,0.00,,,0.00,,2013-06-13 04:22:00,
2013-06-13 00:32:00,55.0,53.0,29.77,West,263,0.0,0.0,93,0.00,,,0.00,,2013-06-13 04:32:00,
2013-06-13 00:43:00,55.0,53.0,29.77,West,263,0.0,0.0,93,0.00,,,0.00,,2013-06-13 04:43:00,
2013-06-13 00:53:00,55.0,53.0,29.77,West,263,0.0,0.0,94,0.00,,,0.00,,2013-06-13 04:53:00,
2013-06-13 01:02:00,55.0,53.0,29.77,West,263,0.0,0.0,94,0.00,,,0.00,,2013-06-13 05:02:00,
2013-06-13 01:12:00,55.0,53.0,29.77,West,263,0.0,0.0,94,0.00,,,0.00,,2013-06-13 05:12:00,
2013-06-13 01:24:00,55.0,54.0,29.77,West,263,0.0,0.0,95,0.00,,,0.00,,2013-06-13 05:24:00,
2013-06-13 01:33:00,54.0,53.0,29.76,West,263,0.0,0.0,95,0.00,,,0.00,,2013-06-13 05:33:00,
2013-06-13 01:43:00,54.0,53.0,29.76,West,263,0.0,0.0,95,0.00,,,0.00,,2013-06-13 05:43:00,
2013-06-13 01:53:00,54.0,53.0,29.76,West,263,0.0,0.0,95,0.00,,,0.00,,2013-06-13 05:53:00,
2013-06-13 02:02:00,54.0,53.0,29.76,West,263,0.0,2.0,95,0.00,,,0.00,,2013-06-13 06:02:00,
2013-06-13 02:11:00,54.0,53.0,29.76,West,263,2.0,2.0,95,0.00,,,0.00,,2013-06-13 06:11:00,
2013-06-13 02:22:00,53.0,52.0,29.76,West,263,0.0,2.0,95,0.00,,,0.00,,2013-06-13 06:22:00,
2013-06-13 02:33:00,54.0,53.0,29.76,West,263,0.0,0.0,96,0.00,,,0.00,,2013-06-13 06:33:00,
2013-06-13 02:44:00,53.0,52.0,29.76,West,263,0.0,0.0,95,0.00,,,0.00,,2013-06-13 06:44:00,
2013-06-13 02:52:00,53.0,52.0,29.75,West,263,0.0,0.0,96,0.00,,,0.00,,2013-06-13 06:52:00,
2013-06-13 03:02:00,53.0,52.0,29.75,West,263,0.0,0.0,95,0.00,,,0.00,,2013-06-13 07:02:00,
2013-06-13 03:12:00,52.0,51.0,29.74,West,263,0.0,0.0,96,0.00,,,0.00,,2013-06-13 07:12:00,
2013-06-13 03:22:00,53.0,52.0,29.74,West,263,0.0,0.0,96,0.00,,,0.00,,2013-06-13 07:22:00,
2013-06-13 03:33:00,53.0,52.0,29.74,West,263,0.0,0.0,96,0.00,,,0.00,,2013-06-13 07:33:00,
2013-06-13 03:42:00,53.0,52.0,29.74,West,263,0.0,0.0,96,0.00,,,0.00,,2013-06-13 07:42:00,
2013-06-13 03:52:00,53.0,52.0,29.75,West,263,0.0,0.0,96,0.00,,,0.00,,2013-06-13 07:52:00,
2013-06-13 04:01:00,54.0,53.0,29.73,West,263,0.0,0.0,96,0.00,,,0.00,,2013-06-13 08:01:00,
2013-06-13 04:11:00,54.0,53.0,29.73,West,263,0.0,0.0,96,0.00,,,0.00,,2013-06-13 08:11:00,
2013-06-13 04:22:00,54.0,53.0,29.74,West,263,0.0,0.0,97,0.00,,,0.00,,2013-06-13 08:22:00,
2013-06-13 04:32:00,54.0,53.0,29.74,West,263,0.0,0.0,97,0.00,,,0.00,,2013-06-13 08:32:00,
2013-06-13 04:43:00,54.0,53.0,29.74,West,263,0.0,0.0,97,0.00,,,0.00,,2013-06-13 08:43:00,
2013-06-13 04:52:00,54.0,53.0,29.73,West,263,0.0,0.0,97,0.00,,,0.00,,2013-06-13 08:52:00,
2013-06-13 05:02:00,54.0,53.0,29.73,West,263,0.0,0.0,97,0.00,,,0.00,,2013-06-13 09:02:00,
2013-06-13 05:12:00,54.0,53.0,29.73,West,263,0.0,0.0,97,0.00,,,0.00,,2013-06-13 09:12:00,
2013-06-13 05:22:00,55.0,54.0,29.72,West,263,0.0,0.0,97,0.00,,,0.00,,2013-06-13 09:22:00,
2013-06-13 05:32:00,55.0,54.0,29.72,West,262,0.0,0.0,97,0.00,,,0.00,,2013-06-13 09:32:00,
2013-06-13 05:42:00,55.0,54.0,29.72,West,263,0.0,0.0,97,0.00,,,0.00,,2013-06-13 09:42:00,
2013-06-13 05:52:00,55.0,54.0,29.72,West,263,0.0,0.0,97,0.00,,,0.00,,2013-06-13 09:52:00,
2013-06-13 06:01:00,55.0,54.0,29.73,West,263,0.0,0.0,97,0.00,,,0.00,,2013-06-13 10:01:00,
2013-06-13 06:12:00,55.0,54.0,29.73,West,263,0.0,0.0,97,0.00,,,0.00,,2013-06-13 10:12:00,
2013-06-13 06:22:00,55.0,54.0,29.72,West,263,0.0,0.0,97,0.00,,,0.00,,2013-06-13 10:22:00,
2013-06-13 06:33:00,55.0,54.0,29.72,West,263,0.0,0.0,97,0.00,,,0.00,,2013-06-13 10:33:00,
2013-06-13 06:43:00,55.0,54.0,29.72,West,263,0.0,0.0,97,0.01,,,0.01,,2013-06-13 10:43:00,
2013-06-13 06:53:00,55.0,54.0,29.72,West,263,0.0,0.0,97,0.01,,,0.01,,2013-06-13 10:53:00,
2013-06-13 07:02:00,55.0,54.0,29.72,West,263,0.0,1.0,97,0.01,,,0.01,,2013-06-13 11:02:00,
2013-06-13 07:12:00,55.0,54.0,29.72,West,263,0.0,1.0,97,0.02,,,0.02,,2013-06-13 11:12:00,
2013-06-13 07:24:00,55.0,54.0,29.72,West,263,0.0,0.0,97,0.02,,,0.02,,2013-06-13 11:24:00,
2013-06-13 07:32:00,55.0,54.0,29.71,West,263,0.0,0.0,97,0.03,,,0.03,,2013-06-13 11:32:00,
2013-06-13 07:42:00,56.0,55.0,29.71,West,263,0.0,0.0,97,0.02,,,0.03,,2013-06-13 11:42:00,
2013-06-13 07:52:00,56.0,55.0,29.70,West,263,0.0,0.0,97,0.02,,,0.03,,2013-06-13 11:52:00,
2013-06-13 08:02:00,56.0,55.0,29.70,West,263,0.0,0.0,97,0.02,,,0.03,,2013-06-13 12:02:00,
2013-06-13 08:12:00,56.0,55.0,29.70,West,263,0.0,0.0,97,0.02,,,0.03,,2013-06-13 12:12:00,
2013-06-13 08:22:00,56.0,55.0,29.69,West,263,0.0,0.0,98,0.02,,,0.04,,2013-06-13 12:22:00,
2013-06-13 08:35:00,56.0,55.0,29.69,West,263,0.0,0.0,97,0.01,,,0.04,,2013-06-13 12:35:00,
2013-06-13 08:43:00,56.0,55.0,29.69,West,263,0.0,0.0,97,0.02,,,0.05,,2013-06-13 12:43:00,
2013-06-13 08:52:00,56.0,55.0,29.69,West,263,0.0,0.0,97,0.03,,,0.06,,2013-06-13 12:52:00,
2013-06-13 09:02:00,56.0,55.0,29.69,West,263,0.0,2.0,97,0.05,,,0.08,,2013-06-13 13:02:00,
2013-06-13 09:11:00,56.0,55.0,29.69,West,263,0.0,0.0,97,0.06,,,0.09,,2013-06-13 13:11:00,
2013-06-13 09:22:00,56.0,55.0,29.70,West,263,0.0,2.0,97,0.07,,,0.11,,2013-06-13 13:22:00,
2013-06-13 09:33:00,56.0,55.0,29.70,West,263,0.0,1.0,97,0.09,,,0.13,,2013-06-13 13:33:00,
2013-06-13 09:43:00,56.0,55.0,29.69,West,263,0.0,0.0,98,0.09,,,0.14,,2013-06-13 13:43:00,
2013-06-13 09:53:00,56.0,55.0,29.68,West,263,0.0,0.0,98,0.09,,,0.14,,2013-06-13 13:53:00,
2013-06-13 10:02:00,56.0,55.0,29.68,West,261,0.0,1.0,98,0.09,,,0.15,,2013-06-13 14:02:00,
2013-06-13 10:11:00,56.0,55.0,29.69,West,263,0.0,1.0,98,0.06,,,0.16,,2013-06-13 14:11:00,
2013-06-13 10:22:00,56.0,55.0,29.68,West,263,0.0,2.0,98,0.06,,,0.17,,2013-06-13 14:22:00,
2013-06-13 10:33:00,56.0,55.0,29.68,West,261,0.0,0.0,98,0.06,,,0.19,,2013-06-13 14:33:00,
2013-06-13 10:43:00,56.0,55.0,29.68,West,263,0.0,1.0,98,0.08,,,0.22,,2013-06-13 14:43:00,
2013-06-13 10:53:00,56.0,55.0,29.68,West,263,0.0,0.0,98,0.08,,,0.23,,2013-06-13 14:53:00,
2013-06-13 11:02:00,56.0,55.0,29.68,West,263,0.0,0.0,98,0.11,,,0.26,,2013-06-13 15:02:00,
2013-06-13 11:12:00,56.0,55.0,29.68,West,263,0.0,0.0,98,0.13,,,0.29,,2013-06-13 15:12:00,
2013-06-13 11:22:00,56.0,55.0,29.68,West,262,0.0,0.0,98,0.13,,,0.31,,2013-06-13 15:22:00,
2013-06-13 11:33:00,56.0,55.0,29.69,West,261,0.0,0.0,98,0.14,,,0.33,,2013-06-13 15:33:00,
2013-06-13 11:43:00,56.0,55.0,29.69,West,263,0.0,1.0,98,0.14,,,0.35,,2013-06-13 15:43:00,
2013-06-13 11:53:00,56.0,55.0,29.67,West,262,0.0,1.0,98,0.16,,,0.39,,2013-06-13 15:53:00,
2013-06-13 12:02:00,56.0,55.0,29.67,West,262,1.0,2.0,98,0.17,,,0.41,,2013-06-13 16:02:00,
2013-06-13 12:12:00,56.0,55.0,29.65,West,262,0.0,2.0,98,0.15,,,0.44,,2013-06-13 16:12:00,
2013-06-13 12:22:00,56.0,55.0,29.65,West,261,0.0,1.0,98,0.16,,,0.47,,2013-06-13 16:22:00,
2013-06-13 12:33:00,56.0,55.0,29.63,West,262,0.0,2.0,98,0.17,,,0.50,,2013-06-13 16:33:00,
2013-06-13 12:43:00,56.0,55.0,29.63,West,262,0.0,2.0,98,0.15,,,0.52,,2013-06-13 16:43:00,
2013-06-13 12:53:00,57.0,56.0,29.63,West,262,1.0,3.0,98,0.15,,,0.53,,2013-06-13 16:53:00,
2013-06-13 13:02:00,56.0,55.0,29.63,West,263,0.0,2.0,98,0.14,,,0.54,,2013-06-13 17:02:00,
2013-06-13 13:12:00,56.0,55.0,29.63,West,261,2.0,3.0,98,0.12,,,0.56,,2013-06-13 17:12:00,
2013-06-13 13:24:00,56.0,55.0,29.63,West,262,0.0,0.0,98,0.11,,,0.58,,2013-06-13 17:24:00,
2013-06-13 13:33:00,56.0,55.0,29.62,West,262,1.0,2.0,98,0.11,,,0.60,,2013-06-13 17:33:00,
2013-06-13 13:43:00,56.0,55.0,29.62,West,261,0.0,2.0,98,0.11,,,0.62,,2013-06-13 17:43:00,
2013-06-13 13:53:00,56.0,55.0,29.62,West,261,0.0,2.0,98,0.12,,,0.65,,2013-06-13 17:53:00,
2013-06-13 14:02:00,56.0,55.0,29.62,West,261,0.0,2.0,98,0.12,,,0.67,,2013-06-13 18:02:00,
2013-06-13 14:11:00,56.0,55.0,29.62,West,260,0.0,3.0,98,0.14,,,0.69,,2013-06-13 18:11:00,
2013-06-13 14:22:00,56.0,55.0,29.61,WSW,253,0.0,4.0,98,0.14,,,0.71,,2013-06-13 18:22:00,
2013-06-13 14:33:00,56.0,55.0,29.61,West,268,0.0,4.0,98,0.15,,,0.74,,2013-06-13 18:33:00,
2013-06-13 14:43:00,56.0,55.0,29.61,West,269,0.0,3.0,98,0.16,,,0.78,,2013-06-13 18:43:00,
2013-06-13 14:52:00,56.0,55.0,29.61,West,270,0.0,3.0,98,0.16,,,0.79,,2013-06-13 18:52:00,
2013-06-13 15:02:00,56.0,55.0,29.61,West,271,1.0,4.0,98,0.16,,,0.83,,2013-06-13 19:02:00,
2013-06-13 15:11:00,56.0,55.0,29.61,West,271,0.0,3.0,98,0.15,,,0.85,,2013-06-13 19:11:00,
2013-06-13 15:22:00,56.0,55.0,29.62,West,271,0.0,3.0,98,0.14,,,0.87,,2013-06-13 19:22:00,
2013-06-13 15:33:00,56.0,55.0,29.62,West,271,0.0,2.0,98,0.14,,,0.88,,2013-06-13 19:33:00,
2013-06-13 15:43:00,56.0,55.0,29.62,West,271,0.0,2.0,98,0.13,,,0.91,,2013-06-13 19:43:00,
2013-06-13 15:53:00,56.0,55.0,29.63,West,271,0.0,1.0,98,0.13,,,0.93,,2013-06-13 19:53:00,
2013-06-13 16:02:00,56.0,55.0,29.63,West,271,0.0,2.0,98,0.12,,,0.95,,2013-06-13 20:02:00,
2013-06-13 16:11:00,56.0,55.0,29.63,West,271,0.0,2.0,98,0.12,,,0.97,,2013-06-13 20:11:00,
2013-06-13 16:22:00,56.0,55.0,29.63,West,271,0.0,2.0,98,0.12,,,0.98,,2013-06-13 20:22:00,
2013-06-13 16:33:00,56.0,55.0,29.63,West,271,0.0,1.0,98,0.14,,,1.02,,2013-06-13 20:33:00,
2013-06-13 16:44:00,56.0,55.0,29.63,West,271,1.0,1.0,98,0.16,,,1.06,,2013-06-13 20:44:00,
2013-06-13 16:53:00,56.0,55.0,29.63,West,271,0.0,0.0,98,0.16,,,1.09,,2013-06-13 20:53:00,
2013-06-13 17:02:00,56.0,55.0,29.62,West,271,0.0,0.0,98,0.16,,,1.11,,2013-06-13 21:02:00,
2013-06-13 17:11:00,56.0,55.0,29.62,West,271,0.0,0.0,98,0.16,,,1.12,,2013-06-13 21:11:00,
2013-06-13 17:22:00,56.0,55.0,29.62,West,271,0.0,3.0,98,0.15,,,1.14,,2013-06-13 21:22:00,
2013-06-13 17:34:00,56.0,55.0,29.61,West,271,0.0,2.0,98,0.11,,,1.15,,2013-06-13 21:34:00,
2013-06-13 17:43:00,56.0,55.0,29.61,West,271,0.0,3.0,98,0.09,,,1.16,,2013-06-13 21:43:00,
2013-06-13 17:52:00,56.0,55.0,29.61,West,271,0.0,2.0,98,0.08,,,1.17,,2013-06-13 21:52:00,
2013-06-13 18:02:00,56.0,55.0,29.61,West,271,0.0,1.0,98,0.08,,,1.18,,2013-06-13 22:02:00,
2013-06-13 18:11:00,56.0,55.0,29.61,West,271,0.0,0.0,98,0.07,,,1.19,,2013-06-13 22:11:00,
2013-06-13 18:22:00,56.0,55.0,29.61,West,271,0.0,2.0,98,0.07,,,1.20,,2013-06-13 22:22:00,
2013-06-13 18:33:00,56.0,55.0,29.61,West,271,0.0,0.0,98,0.05,,,1.20,,2013-06-13 22:33:00,
2013-06-13 18:43:00,56.0,55.0,29.61,West,271,0.0,0.0,98,0.04,,,1.20,,2013-06-13 22:43:00,
2013-06-13 18:52:00,56.0,55.0,29.61,West,271,0.0,0.0,98,0.03,,,1.20,,2013-06-13 22:52:00,
2013-06-13 19:02:00,56.0,55.0,29.62,West,271,0.0,0.0,98,0.03,,,1.21,,2013-06-13 23:02:00,
2013-06-13 19:11:00,56.0,55.0,29.62,West,271,0.0,0.0,98,0.03,,,1.21,,2013-06-13 23:11:00,
2013-06-13 19:22:00,56.0,55.0,29.62,West,271,0.0,0.0,98,0.03,,,1.22,,2013-06-13 23:22:00,
2013-06-13 19:32:00,56.0,55.0,29.62,West,271,0.0,0.0,98,0.02,,,1.22,,2013-06-13 23:32:00,
2013-06-13 19:43:00,56.0,55.0,29.62,West,271,0.0,0.0,98,0.03,,,1.23,,2013-06-13 23:43:00,
2013-06-13 19:52:00,56.0,55.0,29.62,West,271,0.0,0.0,98,0.02,,,1.23,,2013-06-13 23:52:00,
2013-06-13 20:01:00,56.0,55.0,29.62,West,271,0.0,0.0,98,0.02,,,1.23,,2013-06-14 00:01:00,
2013-06-13 20:12:00,56.0,55.0,29.62,West,271,0.0,0.0,98,0.03,,,1.24,,2013-06-14 00:12:00,
2013-06-13 20:22:00,56.0,55.0,29.62,West,271,0.0,0.0,98,0.02,,,1.24,,2013-06-14 00:22:00,
2013-06-13 20:34:00,56.0,55.0,29.62,West,271,0.0,0.0,98,0.02,,,1.24,,2013-06-14 00:34:00,
2013-06-13 20:43:00,56.0,55.0,29.62,West,271,0.0,0.0,98,0.03,,,1.26,,2013-06-14 00:43:00,
2013-06-13 20:53:00,56.0,55.0,29.62,West,271,0.0,0.0,98,0.03,,,1.26,,2013-06-14 00:53:00,
2013-06-13 21:01:00,56.0,56.0,29.62,West,271,0.0,0.0,99,0.03,,,1.26,,2013-06-14 01:01:00,
2013-06-13 21:11:00,55.0,54.0,29.62,West,271,0.0,0.0,98,0.03,,,1.27,,2013-06-14 01:11:00,
2013-06-13 21:22:00,55.0,54.0,29.62,West,271,0.0,0.0,98,0.04,,,1.28,,2013-06-14 01:22:00,
2013-06-13 21:33:00,55.0,54.0,29.62,West,271,0.0,1.0,98,0.04,,,1.28,,2013-06-14 01:33:00,
2013-06-13 21:43:00,55.0,54.0,29.62,West,271,0.0,0.0,98,0.02,,,1.28,,2013-06-14 01:43:00,
2013-06-13 21:52:00,55.0,54.0,29.62,West,271,0.0,0.0,98,0.02,,,1.28,,2013-06-14 01:52:00,
2013-06-13 22:02:00,55.0,54.0,29.62,West,271,0.0,0.0,98,0.03,,,1.29,,2013-06-14 02:02:00,
2013-06-13 22:11:00,55.0,54.0,29.62,West,271,0.0,0.0,98,0.03,,,1.30,,2013-06-14 02:11:00,
2013-06-13 22:22:00,55.0,54.0,29.62,West,271,0.0,1.0,98,0.02,,,1.30,,2013-06-14 02:22:00,
2013-06-13 22:32:00,55.0,54.0,29.63,West,271,0.0,0.0,98,0.03,,,1.31,,2013-06-14 02:32:00,
2013-06-13 22:43:00,54.0,54.0,29.63,West,271,0.0,2.0,99,0.04,,,1.32,,2013-06-14 02:43:00,
2013-06-13 22:52:00,54.0,54.0,29.63,West,271,0.0,1.0,99,0.04,,,1.33,,2013-06-14 02:52:00,
2013-06-13 23:02:00,54.0,53.0,29.63,West,271,0.0,0.0,98,0.05,,,1.34,,2013-06-14 03:02:00,
2013-06-13 23:12:00,54.0,53.0,29.63,West,271,0.0,2.0,98,0.05,,,1.35,,2013-06-14 03:12:00,
2013-06-13 23:22:00,54.0,53.0,29.63,West,271,0.0,2.0,98,0.06,,,1.36,,2013-06-14 03:22:00,
2013-06-13 23:34:00,53.0,52.0,29.63,West,271,1.0,3.0,98,0.06,,,1.37,,2013-06-14 03:34:00,
2013-06-13 23:43:00,53.0,52.0,29.63,West,272,0.0,1.0,98,0.06,,,1.38,,2013-06-14 03:43:00,
2013-06-13 23:53:00,53.0,52.0,29.64,West,272,0.0,0.0,98,0.05,,,1.38,,2013-06-14 03:53:00,